OneWeb SL0595

operational
NORAD ID: 54661 Int'l Des: 2022-166 Owner: ONEWEBN Country: UK Constellation: oneweb
LEOCIRCULARPOLARONEWEB_TYPE

About OneWeb SL0595

Description loading...

Live Position

Loading 3D Globe...

Upcoming Passes

Altitude History

Altitude vs Time

uPlot chart will show altitude changes over time

Two-Line Element Set

1 54661U 22166V 25298.44602529 -.00001508 00000-0 -36841-2 0 9997
2 54661 87.9163 290.8069 0001957 87.3432 272.7926 13.21834056140521
Epoch: Oct 25, 2025 • Age: 14 hours

Current Status

Altitude 1191.7 km
Velocity 7.26 km/s
Sub-Earth Point -34.91°S, 121.37°W
Launch Date Dec 8, 2022
Age 2.8 years
Type internet

Technical Details

Classification Payload
Mass 148.00 kg
Dry Mass 140.00 kg
Total Mass 148.00 kg
Length 1.30 m
Diameter 1.00 m
Span 5.00 m
Shape Trapezoid+2 pan
Manufacturer ONEWUS
Bus Type ARROW
Phase Status In Orbit
Owner/State ONEWEBN/UK

Large Constellations

Loading constellations...